Home   Weather   Santa Rosa   Past weeks
Flag for USA

Past Weather in Santa Rosa, California, USA — Yesterday and Last 2 Weeks

Now
55 °F

Partly sunny.


Feels Like: 55 °F
Forecast: 55 / 33 °F
Wind: No wind

Location: Santa Rosa Sonoma County Airport

Current Time: Feb 23, 2019 at 3:27:21 pm

Latest Report: Feb 23, 2019 at 2:53 pm


Visibility: 10 mi

Pressure: 30.25 "Hg

Humidity: 53%

Dew Point: 38 °F

Location of Santa RosaLocation

Past Weather in Santa Rosa — Graph

°F

Santa Rosa Temperature Yesterday

Maximum temperature yesterday: 57 °F (at 2:53 pm)
Minimum temperature yesterday: 28 °F (at 5:53 am)
Average temperature yesterday: 43 °F

High & Low Weather Summary for the Past Weeks

 TemperatureHumidityPressure
High59 °F (Feb 13, 9:53 pm)100% (Feb 9, 5:41 am)30.32 "Hg (Feb 9, 5:41 am)
Low28 °F (Feb 22, 5:53 am)22% (Feb 21, 4:53 pm)29.30 "Hg (Feb 14, 3:53 am)
Average45 °F80%29.93 "Hg
* Reported Feb 8 1:53 pm — Feb 23 1:53 pm, Santa Rosa. Weather by CustomWeather, © 2019

Note: Actual official high and low records may vary slightly from our data, if they occured in-between our weather recording intervals... More about our weather records

Advertising

Santa Rosa Weather History for the Previous 24 Hours

Scroll right to see more
 ConditionsComfort  
Time TempWeatherWind HumidityBarometerVisibility
1:53 pm
Sat, Feb 23
55 °FScattered clouds.6 mph57%30.26 "Hg10 mi
12:53 pm52 °FOvercast.No wind64%30.29 "Hg10 mi
11:53 am49 °FPartly sunny.6 mph69%30.31 "Hg10 mi
10:53 am47 °FPartly sunny.5 mph66%30.31 "Hg10 mi
9:53 am42 °FPartly sunny.No wind79%30.31 "Hg10 mi
8:53 am38 °FOvercast.3 mph86%30.32 "Hg10 mi
7:53 am34 °FPartly sunny.No wind92%30.29 "Hg10 mi
6:53 am31 °FScattered clouds.No wind100%30.27 "Hg10 mi
5:53 am30 °FClear.6 mph96%30.26 "Hg10 mi
4:53 am30 °FClear.No wind96%30.24 "Hg10 mi
3:53 am31 °FClear.3 mph96%30.24 "Hg10 mi
2:53 am32 °FClear.No wind96%30.22 "Hg10 mi
1:53 am33 °FClear.No wind92%30.22 "Hg10 mi
12:53 am34 °FClear.No wind92%30.22 "Hg10 mi
11:53 pm
Fri, Feb 22
35 °FClear.5 mph92%30.20 "Hg10 mi
10:53 pm36 °FClear.6 mph89%30.19 "Hg10 mi
9:53 pm37 °FClear.5 mph86%30.19 "Hg10 mi
8:53 pm37 °FClear.7 mph86%30.17 "Hg10 mi
7:53 pm44 °FClear.5 mph65%30.15 "Hg10 mi
6:53 pm46 °FClear.6 mph61%30.12 "Hg10 mi
5:53 pm52 °FSunny.3 mph43%30.10 "Hg10 mi
4:53 pm54 °FSunny.12 mph41%30.09 "Hg10 mi
3:53 pm56 °FSunny.8 mph37%30.07 "Hg10 mi
Weather by CustomWeather, © 2019

See weather overview